Overview Statistics Trail Chart Weather Telemetry Raw packets
 

This is the latest recevied weather packets stored in our database for station/object K4KMJ. If no packets are shown the sender has not sent any weather packets the latest 10 day(s).

<< 14 15 16 17 18 19 20 >>
Time Temp. Humidity Pressure Rain* Wind** Luminosity Snow
1788567393 24.44° C 99% 1017.1 hPa 0 mm - 0 W/m² -
1788567092 24.44° C 99% 1017.1 hPa 0.51 mm - 0 W/m² -
1788566787 24.44° C 99% 1017.1 hPa 0.51 mm - 0 W/m² -
1788566484 24.44° C 99% 1017.2 hPa 0 mm - 0 W/m² -
1788566183 24.44° C 99% 1017.1 hPa 0 mm - 0 W/m² -
1788565882 24.44° C 99% 1017.1 hPa 0 mm - 0 W/m² -
1788565578 24.44° C 99% 1017.1 hPa 0 mm - 1 W/m² -
1788565273 24.44° C 99% 1017.3 hPa 0 mm - 2 W/m² -
1788564969 24.44° C 99% 1017.3 hPa 0 mm - 1 W/m² -
1788564665 24.44° C 99% 1017.1 hPa 0 mm - 1 W/m² -
1788564361 24.44° C 99% 1017.5 hPa 0 mm - 0 W/m² -
1788564057 24.44° C 99% 1017.3 hPa 0 mm - 0 W/m² -
1788563752 24.44° C 99% 1017.1 hPa 0 mm - 0 W/m² -
1788563447 24.44° C 99% 1017.5 hPa 0 mm - 1 W/m² -
1788563146 24.44° C 99% 1017.2 hPa 0 mm - 1 W/m² -
1788562842 24.44° C 99% 1017.1 hPa 0 mm - 1 W/m² -
1788562539 24.44° C 99% 1017.3 hPa 0 mm - 1 W/m² -
1788562239 24.44° C 99% 1017.4 hPa 0.51 mm - 1 W/m² -
1788561935 23.89° C 99% 1017.5 hPa 0 mm - 2 W/m² -
1788561634 23.89° C 99% 1017.6 hPa 0.51 mm - 2 W/m² -
1788561333 23.89° C 99% 1017.3 hPa 1.78 mm - 2 W/m² -
1788561030 23.33° C 99% 1017.1 hPa 3.05 mm - 3 W/m² -
1788560725 23.33° C 99% 1017.1 hPa 3.05 mm - 3 W/m² -
1788560420 23.33° C 99% 1017.1 hPa 4.83 mm - 3 W/m² -
1788560115 23.33° C 99% 1017.1 hPa 6.1 mm - 3 W/m² -

* Rain latest hour (hover to see other rain measurements)
** Current wind speed in m/s (hover to see current wind gust speed)